Location: *
(52.2090°N, 4.1550°W)
Time: 09:25:42
(UTC+00:00)

Cosmos 2322 Rocket - Pass Details

Date: 19 July 2019
Orbit: 833 x 850 km, 71.0° (Epoch: 20 August)

Event Time Altitude Azimuth Distance (km) Brightness Sun altitude
Rises 21:13:27 0° 206° (SSW) 3,405 5.1 -6.2°
Reaches altitude 10° 21:15:53 10° 206° (SSW) 2,474 4.4 -6.4°
Maximum altitude 21:21:35 84° 118° (ESE) 862 2.2 -7.0°
Drops below altitude 10° 21:27:18 10° 32° (NNE) 2,487 4.9 -7.6°
Sets 21:29:46 0° 32° (NNE) 3,425 5.6 -7.9°
